www.pogodaiklimat.ru

Погода и климат >> Архив погоды >> Россия >> Приморский край >> Сосуново


ПОГОДА в Сосуново

  • Прогноз погоды в Сосуново
  • Монитор погоды в Сосуново

АРХИВ ПОГОДЫ в Сосуново

Время (UTC), дата Ветер
(напр.,м/с)
 
Видим.   Явления Облачность Т
(С)
Тd
(С)
f
(%)
Тe
(С)
Тes
(С)
Комфортность P
(гПа)
Po
(гПа)
Тmin
(С)
Tmax
(С)
R
(мм)
R24
(мм)
S
(см)
09 12.08 С 3 20 км в посл. час ливневой дождь 10/10 600 м
[Sc]
+15.7 +13.8 88 +15 +15 1006.8 1006.2 +16.0 3
12 12.08 З 1 20 км {ливн. осадки} 10/10 600 м
[Sc]
+15.0 +13.6 91 +15 +15 1008.2 1007.5
15 12.08 СЗ 2 20 км 10/10 600 м
[Sc]
+14.5 +13.3 93 +14 +14 1009.1 1008.4
18 12.08 ЮЗ 1 20 км 10/10 600 м
[Sc]
+14.2 +12.9 92 +14 +14 1010.5 1009.9
21 12.08 С 3 50 км 6/6 600 м
[Sc]
+15.1 +13.2 88 +14 +15 1011.9 1011.2 +13.9
00 13.08 СВ 3 50 км 10/10 600 м
[Sc]
+16.5 +13.5 82 +16 +16 1012.7 1012.1
03 13.08 ЮВ 2 50 км 10/4 1000 м
[Cu hum Cs]
+18.3 +14.1 76 +19 +27 1012.5 1011.9
06 13.08 Ю 3 50 км 10/3 600 м
[Cu Sc Cs]
+18.4 +14.1 76 +19 +23 1012.5 1011.9
09 13.08 Ю 2 50 км 4/0
[Cc]
+16.8 +13.4 80 +17 +17 1012.4 1011.7 +18.9
12 13.08 ЮЗ 2 50 км 8/8 600 м
[Sc]
+12.7 +11.5 92 +12 +12 1012.9 1012.2
15 13.08 ЮЗ 4 4000 м дымка 8/8 300 м
[St]
+12.6 +11.7 94 +11 +11 1012.9 1012.3
18 13.08 ЮЗ 3 4000 м дымка 6/6 300 м
[St]
+12.3 +11.4 94 +11 +11 1012.2 1011.6
21 13.08 ЮЗ 5 4000 м дымка 8/4 300 м
[St Cc]
+12.5 +11.5 94 +10 +10 1012.3 1011.6 +11.4
00 14.08 СВ 1 50 км 8/1 1000 м
[Cu hum Cc]
+17.3 +14.2 82 +18 +27 1012.3 1011.6
03 14.08 СВ 3 50 км 10/10 600 м
[Cu hum]
+18.1 +14.9 82 +18 +18 1011.3 1010.7
06 14.08 СВ 3 50 км 10/10 1000 м
[Cb cap]
+17.8 +15.0 84 +18 +18 1010.3 1009.7
09 14.08 СЗ 1 20 км слаб. ливневой дождь 10/10 600 м
[Cb cap]
+16.9 +14.9 88 +18 +18 1010.3 1009.7 +18.9 0.0
12 14.08 штиль 0 50 км {ливн. осадки} 10/10 600 м
[Sc]
+14.9 +13.5 91 +15 +15 1010.5 1009.9
15 14.08 ЮЗ 1 10 км слаб. ливневой дождь 10/10 600 м
[Cb cap]
+14.9 +13.6 92 +15 +15 1009.8 1009.2
18 14.08 З 2 50 км в посл. час ливневой дождь 10/10 600 м
[Cb cap]
+14.9 +13.8 93 +15 +15 1009.1 1008.4
21 14.08 ЮЗ 1 20 км 10/10 600 м
[Cb cap]
+15.1 +14.1 94 +16 +16 1008.7 1008.0 +14.8 5
00 15.08 СВ 3 20 км {морось} 10/10 300 м
[St]
+16.4 +15.3 93 +16 +16 1008.5 1007.9
03 15.08 С 4 10 км слаб. морось 10/10 300 м
[St]
+17.1 +15.9 93 +17 +17 1007.9 1007.3
06 15.08 С 7 20 км {морось} 10/10 300 м
[St]
+16.9 +15.5 91 +16 +16 1007.7 1007.1
09 15.08 С 2
{10}
4000 м морось 10/10 200 м
[St]
+17.3 +16.0 92 +18 +18 1008.2 1007.5 +17.5 0.7
12 15.08 С 6
{11}
4000 м слаб. морось 10/10 200 м
[St]
+16.5 +15.4 93 +15 +15 1008.8 1008.2
15 15.08 С 5
{13}
4000 м слаб. морось 10/10 200 м
[St]
+15.8 +14.5 92 +15 +15 1007.4 1006.8
18 15.08 С 9-13
{13}
4000 м ливневой дождь {морось} 10/10 600 м
[Cb cap]
+15.7 +14.3 91 +14 +14 1006.2 1005.5
21 15.08 С 6-11
{16}
4000 м ливневой дождь 10/10 200 м
[Cb cap]
+15.5 +13.9 90 +14 +14 1005.9 1005.2 +15.5 6
00 16.08 СВ 11-18
{18}
4000 м ливневой дождь {морось} 10/10 200 м
[Cb cap]
+15.8 +14.5 92 +14 +14 1005.0 1004.4 +15.4
03 16.08 С 13-19
{20}
4000 м ливневой дождь 10/10 200 м
[Cb cap]
+15.6 +14.4 93 +13 +13 1003.5 1002.9
06 16.08 СВ 15-21
{21}
4000 м ливневой дождь 10/10 200 м
[Cb cap]
+15.2 +14.2 94 +12 +12 1001.6 1001.0
09 16.08 СВ 15-21
{22}
2000 м сильн. ливневой дождь 10/10 200 м
[Cb cap]
+15.1 +14.2 94 +12 +12 1000.9 1000.3 +15.8 32
12 16.08 СВ 15-22
{24}
4000 м ливневой дождь 10/10 200 м
[Cb cap]
+14.7 +13.7 94 +11 +11 1001.2 1000.6
15 16.08 СВ 17-23
{24}
4000 м ливневой дождь 10/10 200 м
[Cb cap]
+14.5 +13.4 93 +11 +11 1000.0 999.3
18 16.08 СВ 16-23
{26}
4000 м ливневой дождь 10/10 200 м
[Cb cap]
+14.1 +12.8 92 +10 +10 999.5 998.9
21 16.08 СВ 16-22
{24}
4000 м ливневой дождь 10/10 200 м
[Cb cap]
+14.0 +12.7 92 +10 +10 999.7 999.0 +13.9 52
00 17.08 С 14-21
{23}
2000 м ливневой дождь 10/10 200 м
[Cb cap]
+14.0 +12.8 92 +10 +10 1000.2 999.5 +13.8
03 17.08 С 12-19
{21}
1000 м ливневой дождь 10/10 200 м
[Cb cap]
+14.0 +12.9 93 +11 +11 1001.8 1001.2
06 17.08 СВ 13-17
{21}
2000 м слаб. ливневой дождь 10/10 200 м
[Cb cap]
+13.9 +12.7 92 +10 +10 1002.9 1002.2
09 17.08 СВ 12-16
{19}
4000 м слаб. ливневой дождь 10/10 200 м
[Cb cap]
+13.7 +12.4 92 +10 +10 1004.0 1003.3 +14.0 49
12 17.08 СВ 12-15
{18}
4000 м слаб. ливневой дождь 10/10 600 м
[Cb cap]
+13.2 +11.9 92 +10 +10 1006.2 1005.6
15 17.08 СВ 10-13
{15}
4000 м слаб. ливневой дождь 10/10 600 м
[Cb cap]
+12.8 +11.6 92 +9 +9 1007.2 1006.6
18 17.08 С 8-10
{13}
4000 м слаб. ливневой дождь 10/10 600 м
[Cb cap]
+12.7 +11.5 92 +10 +10 1008.5 1007.8
21 17.08 СВ 6
{10}
4000 м дымка {ливн. осадки} 10/10 200 м
[Cb cap]
+12.7 +11.4 92 +10 +10 1009.7 1009.1 +12.6 5
00 18.08 С 4 10 км слаб. морось 10/10 300 м
[St]
+13.3 +11.7 90 +12 +12 1011.2 1010.5
03 18.08 СВ 6 20 км {морось} 6/6 600 м
[Cu hum]
+15.7 +12.5 81 +14 +17 1011.3 1010.6
06 18.08 СВ 6 20 км {морось} 6/6 600 м
[Cu hum]
+14.7 +11.9 83 +13 +14 1011.5 1010.9
09 18.08 СВ 4 20 км 10/10 600 м
[Sc]
+14.2 +11.8 85 +13 +13 1012.3 1011.6 +15.9 0.0
12 18.08 С 2 20 км 10/10 600 м
[Sc]
+14.0 +11.9 87 +13 +13 1013.7 1013.0
15 18.08 СЗ 1 20 км 10/10 600 м
[Sc]
+13.3 +11.8 91 +13 +13 1014.5 1013.8
18 18.08 З 1 20 км 10/10 600 м
[Sc]
+13.1 +11.8 92 +13 +13 1014.7 1014.0
21 18.08 ЮЗ 1 20 км {ливн. осадки} 10/10 600 м
[]
+13.3 +12.2 93 +13 +13 1015.7 1015.0 +13.1 2
00 19.08 СВ 3 4000 м слаб. морось 10/10 300 м
[St]
+14.2 +12.9 92 +13 +13 1016.3 1015.7
03 19.08 СВ 3 4000 м слаб. морось 10/10 300 м
[St]
+14.4 +13.2 92 +13 +13 1016.7 1016.0
06 19.08 СВ 3 10 км {морось} 10/10 300 м
[St]
+15.4 +13.9 91 +15 +15 1016.2 1015.5

 

Местоположение метеостанции Сосуново (Приморский край, Россия): широта 46.55 долгота 138.30 высота над уровнем моря 4 м.

В архиве по умолчанию представлена погода в Сосуново за последнюю неделю. Архивные данные за месяц целиком и за предыдущие месяцы, начиная с января 2011 года, Вы можете получить, выбрав интересующий диапазон дат из раскрывающегося списка и нажав кнопку "Ввод!".


*Определитесь, кто Вы:
робот инопланетянин человек

Внимание! Время в таблицах - всемирное. Для получения местного времени необходимо прибавить поправку, которая равна 10 ч.

Смотрите также архив погоды в соседних городах и на ближайших метеорологических станциях:

Погода в Агзу (Приморский край, Россия) (117 км)
Погода в Сукпае (Хабаровский край, Россия) (142 км)
Погода в Малой Кеме (Приморский край, Россия) (158 км)
Погода в Гвасюгах (Хабаровский край, Россия) (208 км)
Погода в Тернее (Приморский край, Россия) (217 км)
Погода на Острове Монерон (Сахалинская область, Россия) (225 км)
Погода в Красном Яре (Приморский край, Россия) (230 км)
Погода в Глубинном (Приморский край, Россия) (237 км)
Погода в Бичевой (Хабаровский край, Россия) (245 км)
Погода в Тивяку (Хабаровский край, Россия) (248 км)

Пояснения к столбцам:

Ветер - указаны скорость ветра в м/с - средняя за 10 мин, порывы в срок и между сроками (в фигурных скобках) и направление, откуда дует ветер: С - северный, СВ - северо-восточный, В - восточный, ЮВ - юго-восточный, Ю - южный, ЮЗ - юго-западный, З - западный, СЗ - северо-западный.
Видимость - горизонтальная дальность видимости в метрах или километрах. При видимости от 1 до 10 км при отсутствии осадков обычно наблюдается дымка, при ухудшении видимости до 1 км и менее - туман. В сухую погоду видимость может ухудшаться дымом, пылью или мглою.
Явления - указаны атмосферные явления, наблюдавшиеся в срок или в последний час перед сроком; фигурными скобками обозначены явления, наблюдавшиеся между сроками (за 1-3 часа до срока); квадратными скобками обозначены град или гололедные отложения с указанием их диаметра в мм.
Облачность - указаны через наклонную черту общая и нижняя облачность в баллах и высота нижней границы облаков в метрах; квадратными скобками обозначены формы облаков: Ci - перистые, Cs - перисто-слоистые, Cc - перисто-кучевые, Ac - высококучевые, As - высокослоистые, Sc - слоисто-кучевые, Ns - слоисто-дождевые, Cu - кучевые, Cb - кучево-дождевые. Подробнее классификацию облаков см. в Атласе облаков (PDF).
T - Температура воздуха - температура, измеренная на высоте 2 м над землей.
Td - Температура точки росы - температура, при понижении до которой содержащийся в воздухе водяной пар достигнет насыщения.
f - Относительная влажность воздуха - влажноcть воздуха, измеренная на высоте 2 м над землей.
Te - Эффективная температура - температура, которую ощущает одетый по сезону человек в тени. Характеристика душности погоды. При расчете учитывается влияние влажности воздуха и скорости ветра на теплоощущения человека.
Tes - Эффективная температура на солнце - температура, которую ощущает человек, с поправкой на солнечный нагрев. Характеристика знойности погоды. Зависит от высоты солнца над горизонтом, облачности и скорости ветра. Ночью, в пасмурную погоду, а также при ветре 12 м/с и более поправка равна нулю.
P - Атмосферное давление - приведенное к уровню моря атмосферное давление.
Po - Атмосферное давление - измеренное на уровне метеостанции атмосферное давление.
Tmin - Минимальная температура - минимум температуры воздуха на высоте 2 м над землей.
Tmax - Максимальная температура - максимум температуры воздуха на высоте 2 м над землей.
R - Количество осадков - Количество выпавших осадков за период времени, мм. При наведении курсора мыши на число - период времени, за который выпало указанное количество осадков.
R24 - Количество осадков - Количество выпавших осадков за 24 часа, мм.
S - Снежный покров - Высота снежного покрова, см. При наведении курсора мыши на число - состояние снежного покрова и степень покрытия местности в баллах.